TimeCDT,TemperatureF,Dew PointF,Humidity,Sea Level PressureIn,VisibilityMPH,Wind Direction,Wind SpeedMPH,Gust SpeedMPH,PrecipitationIn,Events,Conditions,WindDirDegrees,DateUTC
12:15 AM,75.2,57.2,53,29.99,8.0,SE,6.9,-,N/A,,Scattered Clouds,140,2013-07-22 05:15:00
12:35 AM,75.2,57.2,53,29.99,9.0,SSE,5.8,-,N/A,,Partly Cloudy,150,2013-07-22 05:35:00
12:55 AM,75.2,57.2,53,29.99,8.0,SSE,5.8,-,N/A,,Clear,150,2013-07-22 05:55:00
1:15 AM,73.4,57.2,57,29.98,9.0,SSE,5.8,-,N/A,,Clear,150,2013-07-22 06:15:00
1:35 AM,73.4,57.2,57,29.98,8.0,South,4.6,-,N/A,,Clear,170,2013-07-22 06:35:00
1:55 AM,73.4,57.2,57,29.97,8.0,SSE,4.6,-,N/A,,Clear,160,2013-07-22 06:55:00
2:15 AM,73.4,57.2,57,29.97,7.0,SSE,3.5,-,N/A,,Clear,160,2013-07-22 07:15:00
2:35 AM,73.4,57.2,57,29.97,8.0,South,4.6,-,N/A,,Scattered Clouds,170,2013-07-22 07:35:00
2:55 AM,75.2,57.2,53,29.96,9.0,South,5.8,-,N/A,,Scattered Clouds,170,2013-07-22 07:55:00
3:15 AM,75.2,57.2,53,29.96,8.0,South,4.6,-,N/A,,Partly Cloudy,170,2013-07-22 08:15:00
3:35 AM,75.2,57.2,53,29.96,9.0,South,4.6,-,N/A,,Clear,170,2013-07-22 08:35:00
3:55 AM,75.2,57.2,53,29.96,8.0,South,4.6,-,N/A,,Clear,190,2013-07-22 08:55:00
4:15 AM,75.2,57.2,53,29.96,9.0,South,3.5,-,N/A,,Clear,170,2013-07-22 09:15:00
4:35 AM,75.2,57.2,53,29.97,9.0,South,4.6,-,N/A,,Clear,180,2013-07-22 09:35:00
4:55 AM,75.2,57.2,53,29.97,9.0,South,3.5,-,N/A,,Clear,180,2013-07-22 09:55:00
5:15 AM,75.2,57.2,53,29.98,9.0,South,5.8,-,N/A,,Mostly Cloudy,170,2013-07-22 10:15:00
5:35 AM,75.2,59.0,57,29.97,9.0,South,5.8,-,N/A,,Overcast,170,2013-07-22 10:35:00
5:55 AM,75.2,59.0,57,29.98,10.0,South,4.6,-,N/A,,Overcast,180,2013-07-22 10:55:00
6:15 AM,75.2,59.0,57,29.97,8.0,South,6.9,-,N/A,,Mostly Cloudy,180,2013-07-22 11:15:00
6:35 AM,75.2,59.0,57,29.97,8.0,South,5.8,-,N/A,,Partly Cloudy,180,2013-07-22 11:35:00
6:55 AM,75.2,59.0,57,29.98,8.0,South,3.5,-,N/A,,Clear,170,2013-07-22 11:55:00
7:15 AM,77.0,60.8,57,29.98,9.0,South,5.8,-,N/A,,Scattered Clouds,180,2013-07-22 12:15:00
7:35 AM,78.8,60.8,54,29.98,8.0,SSW,5.8,-,N/A,,Overcast,200,2013-07-22 12:35:00
7:55 AM,78.8,62.6,57,29.98,8.0,SSW,8.1,-,N/A,,Overcast,210,2013-07-22 12:55:00
8:35 AM,78.8,62.6,57,30.00,9.0,SSW,10.4,-,N/A,,Overcast,210,2013-07-22 13:35:00
9:35 AM,78.8,62.6,57,30.00,9.0,SSW,4.6,-,N/A,,Overcast,210,2013-07-22 14:35:00
9:55 AM,80.6,62.6,54,30.00,8.0,SW,4.6,-,N/A,,Mostly Cloudy,230,2013-07-22 14:55:00
10:15 AM,80.6,62.6,54,30.01,8.0,SW,6.9,-,N/A,,Overcast,230,2013-07-22 15:15:00
10:35 AM,80.6,62.6,54,30.01,6.0,SSW,3.5,-,N/A,,Haze,210,2013-07-22 15:35:00
10:55 AM,80.6,62.6,54,30.02,7.0,West,4.6,-,N/A,,Mostly Cloudy,270,2013-07-22 15:55:00
11:15 AM,80.6,62.6,54,30.02,7.0,Calm,Calm,-,N/A,,Mostly Cloudy,0,2013-07-22 16:15:00
11:35 AM,75.2,57.2,53,30.04,1.8,North,13.8,18.4,0.01,Rain,Rain,360,2013-07-22 16:35:00
11:55 AM,71.6,55.4,57,30.05,1.5,North,12.7,16.1,0.04,Rain,Rain,350,2013-07-22 16:55:00
12:15 PM,71.6,55.4,57,30.05,2.0,NNW,10.4,-,0.02,Rain,Light Rain,330,2013-07-22 17:15:00
12:35 PM,71.6,55.4,57,30.05,7.0,NW,5.8,-,0.02,,Light Drizzle,310,2013-07-22 17:35:00
12:55 PM,71.6,55.4,57,30.05,6.0,NW,5.8,-,0.03,,Haze,310,2013-07-22 17:55:00
1:15 PM,71.6,55.4,57,30.05,0.8,NW,4.6,-,0.14,Rain,Rain,310,2013-07-22 18:15:00
1:35 PM,73.4,55.4,53,30.03,3.0,Calm,Calm,-,0.16,,Drizzle,0,2013-07-22 18:35:00
1:55 PM,73.4,57.2,57,30.03,7.0,WSW,3.5,-,0.16,,Partly Cloudy,240,2013-07-22 18:55:00
2:15 PM,73.4,55.4,53,30.01,2.0,SSW,3.5,-,0.01,,Light Drizzle,210,2013-07-22 19:15:00
2:35 PM,73.4,57.2,57,30.00,8.0,WSW,4.6,-,0.02,Rain,Light Rain,250,2013-07-22 19:35:00
2:55 PM,75.2,59.0,57,29.97,9.0,NNW,4.6,-,0.02,,Light Drizzle,330,2013-07-22 19:55:00
3:15 PM,78.8,62.6,57,29.94,10.0,West,3.5,-,N/A,,Clear,260,2013-07-22 20:15:00
3:35 PM,80.6,64.4,58,29.93,9.0,SSW,3.5,-,N/A,,Clear,210,2013-07-22 20:35:00
3:55 PM,82.4,64.4,54,29.94,10.0,West,5.8,-,N/A,,Clear,270,2013-07-22 20:55:00
4:15 PM,82.4,64.4,54,29.94,10.0,West,3.5,-,N/A,,Clear,260,2013-07-22 21:15:00
4:35 PM,82.4,66.2,58,29.94,10.0,WSW,4.6,-,N/A,,Clear,250,2013-07-22 21:35:00
4:55 PM,84.2,66.2,55,29.94,9.0,WSW,4.6,-,N/A,,Clear,240,2013-07-22 21:55:00
5:15 PM,84.2,66.2,55,29.94,10.0,SW,6.9,-,N/A,,Clear,230,2013-07-22 22:15:00
5:35 PM,84.2,66.2,55,29.94,10.0,SSW,6.9,-,N/A,,Partly Cloudy,210,2013-07-22 22:35:00
5:55 PM,84.2,66.2,55,29.94,9.0,SW,6.9,-,N/A,,Clear,230,2013-07-22 22:55:00
6:15 PM,84.2,66.2,55,29.95,9.0,WSW,4.6,-,N/A,,Clear,240,2013-07-22 23:15:00
6:35 PM,84.2,66.2,55,29.95,9.0,SSW,4.6,-,N/A,,Clear,210,2013-07-22 23:35:00
6:55 PM,82.4,66.2,58,29.95,10.0,South,5.8,-,N/A,,Clear,180,2013-07-22 23:55:00
7:15 PM,82.4,64.4,54,29.95,10.0,South,5.8,-,N/A,,Clear,180,2013-07-23 00:15:00
7:35 PM,80.6,62.6,54,29.95,9.0,South,4.6,-,N/A,,Clear,170,2013-07-23 00:35:00
7:55 PM,78.8,62.6,57,29.96,9.0,Calm,Calm,-,N/A,,Clear,0,2013-07-23 00:55:00
8:15 PM,78.8,62.6,57,29.96,10.0,South,6.9,-,N/A,,Clear,180,2013-07-23 01:15:00
8:35 PM,78.8,62.6,57,29.96,10.0,South,5.8,-,N/A,,Clear,180,2013-07-23 01:35:00
8:55 PM,78.8,60.8,54,29.97,10.0,South,6.9,-,N/A,,Clear,190,2013-07-23 01:55:00
9:15 PM,78.8,60.8,54,29.97,10.0,South,6.9,-,N/A,,Clear,180,2013-07-23 02:15:00
9:35 PM,78.8,60.8,54,29.96,10.0,SSE,4.6,-,N/A,,Clear,160,2013-07-23 02:35:00
9:55 PM,77.0,60.8,57,29.96,10.0,South,3.5,-,N/A,,Clear,170,2013-07-23 02:55:00
10:15 PM,75.2,60.8,61,29.96,10.0,SSE,5.8,-,N/A,,Clear,150,2013-07-23 03:15:00
10:35 PM,75.2,59.0,57,29.96,10.0,SSE,4.6,-,N/A,,Clear,150,2013-07-23 03:35:00
10:55 PM,75.2,59.0,57,29.96,10.0,Calm,Calm,-,N/A,,Clear,0,2013-07-23 03:55:00
11:15 PM,75.2,57.2,53,29.96,9.0,Calm,Calm,-,N/A,,Clear,0,2013-07-23 04:15:00
11:35 PM,75.2,57.2,53,29.96,10.0,Calm,Calm,-,N/A,,Clear,0,2013-07-23 04:35:00
11:55 PM,75.2,57.2,53,29.97,10.0,South,3.5,-,N/A,,Clear,170,2013-07-23 04:55:00